Карточка аэропорта UAKK

Внимание!
Информация на этой странице в стадии наполнения.
Если вы не увидели какой-то информации, или заметили неточность - пожалуйста сообщите нам!
Спасибо!
Команда RU-STAFF
Название аэропортаКараганда
Название аэропорта (англ.)Karaganda
Превышение1768 ft. (538.9 m.)
Координаты49°40.302', 73°20.118'
Высота перехода10000
Эшелон переходаby ATC
Коды ответчика0630-0637, 7220-7227
Зона ОрВДАстана РПИ (UACN)
Данные METARUAKK 270930Z 25006MPS 9999 -SN BKN011 BKN025 M09/M11 Q1034 NOSIG RMK QFE728/0971
Проноз погоды (TAF)UAKK 270501Z 2706/2806 24006MPS 5000 -SN BKN011 BKN030 TXM06/2806Z TNM12/2706Z TEMPO 2706/2715 3100 -SN BR BKN005 BECMG 2715/2717 16005MPS TEMPO 2715/2803 VRB02MPS 3100 -SN BR BKN005 BKN015
NOTAMshow/hide NOTAM
AWOS   TABLE

Информация о ВПП

ВПП Длина ВПП (м.) Покрытие Курс ВПП Частота ILS
053601Железобетон50109.9
233601Железобетон230111.7

Диспетчерские позиции




Спутниковое изображение